Simultaneous Nadir Overpasses (SNOs) Predictions

Prediction of SNOs between METOP-C and LANDSAT-8 Satellite Orbit:

Table of predicted SNOs for the next 14.0 days since TLE Epoch: 9/25/2021
Index Date (METOP-C) Time (METOP-C) Lat,Lon (METOP-C) SZA (METOP-C ) Date (LANDSAT-8) Time (LANDSAT-8) Lat,Lon (LANDSAT-8) SZA (LANDSAT-8 ) Distance(km) Time Diff (sec)
1 09/25/2021 10:42:26 81.17, 59.92 84.51 09/25/2021 10:43:17 81.17, 60.01 84.54 1.56 51
2 09/25/2021 11:33:05 -81.20,-132.02 95.39 09/25/2021 11:32:43 -81.19,-132.08 95.41 1.08 22
3 09/28/2021 06:16:44 81.18, 126.66 85.66 09/28/2021 06:17:32 81.19, 126.67 85.69 0.54 48
4 09/28/2021 07:07:23 -81.21, -65.21 94.22 09/28/2021 07:06:58 -81.21, -65.39 94.26 2.99 25
5 10/01/2021 01:51:04 81.18,-167.01 86.77 10/01/2021 01:51:49 81.18,-167.04 86.78 0.57 45
6 10/01/2021 02:41:44 -81.20, 0.81 93.16 10/01/2021 02:41:15 -81.20, 0.92 93.16 1.87 29
7 10/03/2021 21:25:23 81.19,-100.31 87.91 10/03/2021 21:26:05 81.19,-100.38 87.92 1.26 42
8 10/03/2021 22:16:03 -81.21, 67.58 92.01 10/03/2021 22:15:31 -81.21, 67.60 92.02 0.71 32
9 10/06/2021 16:59:42 81.19, -34.01 88.99 10/06/2021 17:00:21 81.18, -34.10 89.00 1.63 39



Historial Predications of SNOs between METOP-C and LANDSAT-8
